Year,Month,Day,Hour,Minute,Value (Times are PST for temperature in C)
2016,06,15,08,46,10.10
2016,06,15,08,47,10.10
2016,06,15,08,48,10.10
2016,06,15,08,49,10.10
2016,06,15,08,50,10.10
2016,06,15,08,51,10.10
2016,06,15,08,52,10.10
2016,06,15,08,53,10.10
2016,06,15,08,54,10.10
2016,06,15,08,55,10.10
2016,06,15,08,56,10.20
2016,06,15,08,57,10.20
2016,06,15,08,58,10.30
2016,06,15,08,59,10.40
2016,06,15,09,00,10.40
2016,06,15,09,01,10.40
2016,06,15,09,02,10.40
2016,06,15,09,03,10.50
2016,06,15,09,04,10.60
2016,06,15,09,05,10.70
2016,06,15,09,06,10.90
2016,06,15,09,07,11.00
2016,06,15,09,08,11.10
2016,06,15,09,09,11.20
2016,06,15,09,10,11.20
2016,06,15,09,11,11.10
2016,06,15,09,12,11.10
2016,06,15,09,13,11.10
2016,06,15,09,14,11.10
2016,06,15,09,15,11.30
2016,06,15,09,16,11.40
2016,06,15,09,17,11.40
2016,06,15,09,18,11.40
2016,06,15,09,19,11.30
2016,06,15,09,20,11.20
2016,06,15,09,21,11.20
2016,06,15,09,22,11.20
2016,06,15,09,23,11.20
2016,06,15,09,24,11.30
2016,06,15,09,25,11.30
2016,06,15,09,26,11.30
2016,06,15,09,27,11.30
2016,06,15,09,28,11.30
2016,06,15,09,29,11.30
2016,06,15,09,30,11.20
2016,06,15,09,31,11.20
2016,06,15,09,32,11.20
2016,06,15,09,33,11.10
2016,06,15,09,34,11.10
2016,06,15,09,35,11.10
2016,06,15,09,36,11.10
2016,06,15,09,37,11.10
2016,06,15,09,38,11.10
2016,06,15,09,39,11.10
2016,06,15,09,40,11.20
2016,06,15,09,41,11.20
2016,06,15,09,42,11.20
2016,06,15,09,43,11.30
2016,06,15,09,44,11.30
2016,06,15,09,45,11.40
2016,06,15,09,46,11.40
2016,06,15,09,47,11.40
2016,06,15,09,48,11.40
2016,06,15,09,49,11.50
2016,06,15,09,50,11.50
2016,06,15,09,51,11.50
2016,06,15,09,52,11.60
2016,06,15,09,53,11.60
2016,06,15,09,54,11.70
2016,06,15,09,55,11.70
2016,06,15,09,56,11.70
2016,06,15,09,57,11.70
2016,06,15,09,58,11.60
2016,06,15,09,59,11.60
2016,06,15,10,00,11.60
2016,06,15,10,01,11.50
2016,06,15,10,02,11.40
2016,06,15,10,03,11.40
2016,06,15,10,04,11.40
2016,06,15,10,05,11.40
2016,06,15,10,06,11.30
2016,06,15,10,07,11.30
2016,06,15,10,08,11.20
2016,06,15,10,09,11.20
2016,06,15,10,10,11.10
2016,06,15,10,11,11.10
2016,06,15,10,12,11.10
2016,06,15,10,13,11.10
2016,06,15,10,14,11.10
2016,06,15,10,15,11.10
2016,06,15,10,16,11.20
2016,06,15,10,17,11.20
2016,06,15,10,18,11.30
2016,06,15,10,19,11.30
2016,06,15,10,20,11.30
2016,06,15,10,21,11.30
2016,06,15,10,22,11.30
2016,06,15,10,23,11.30
2016,06,15,10,24,11.30
2016,06,15,10,25,11.30
2016,06,15,10,26,11.30
2016,06,15,10,27,11.30
2016,06,15,10,28,11.30
2016,06,15,10,29,11.30
2016,06,15,10,30,11.30
2016,06,15,10,31,11.40
2016,06,15,10,32,11.50
2016,06,15,10,33,11.60
2016,06,15,10,34,11.80
2016,06,15,10,35,11.80
2016,06,15,10,36,11.80
2016,06,15,10,37,11.80
2016,06,15,10,38,11.90
2016,06,15,10,39,12.00
2016,06,15,10,40,12.00
2016,06,15,10,41,12.20
2016,06,15,10,42,12.30
2016,06,15,10,43,12.30
2016,06,15,10,44,12.30
2016,06,15,10,45,12.40
2016,06,15,10,46,12.50
2016,06,15,10,47,12.60
2016,06,15,10,48,12.60
2016,06,15,10,49,12.60
2016,06,15,10,50,12.60
2016,06,15,10,51,12.70
2016,06,15,10,52,12.70
2016,06,15,10,53,12.70
2016,06,15,10,54,12.80
2016,06,15,10,55,12.80
2016,06,15,10,56,12.80
2016,06,15,10,57,12.70
2016,06,15,10,58,12.70
2016,06,15,10,59,12.80
2016,06,15,11,00,12.80
2016,06,15,11,01,12.70
2016,06,15,11,02,12.70
2016,06,15,11,03,12.80
2016,06,15,11,04,12.70
2016,06,15,11,05,12.70
2016,06,15,11,06,12.70
2016,06,15,11,07,12.70
2016,06,15,11,08,12.70
2016,06,15,11,09,12.70
2016,06,15,11,10,12.70
2016,06,15,11,11,12.70
2016,06,15,11,12,12.70
2016,06,15,11,13,12.80
2016,06,15,11,14,12.80
2016,06,15,11,15,12.80
2016,06,15,11,16,12.80
2016,06,15,11,17,12.90
2016,06,15,11,18,12.90
2016,06,15,11,19,12.90
2016,06,15,11,20,12.80
2016,06,15,11,21,12.90
2016,06,15,11,22,12.90
2016,06,15,11,23,12.90
2016,06,15,11,24,13.00
2016,06,15,11,25,13.00
2016,06,15,11,26,13.00
2016,06,15,11,27,13.00
2016,06,15,11,28,13.10
2016,06,15,11,29,13.10
2016,06,15,11,30,13.10
2016,06,15,11,31,13.10
2016,06,15,11,32,13.10
2016,06,15,11,33,13.10
2016,06,15,11,34,13.20
2016,06,15,11,35,13.10
2016,06,15,11,36,13.10
2016,06,15,11,37,13.20
2016,06,15,11,38,13.30
2016,06,15,11,39,13.30
2016,06,15,11,40,13.40
2016,06,15,11,41,13.40
2016,06,15,11,42,13.40
2016,06,15,11,43,13.40
2016,06,15,11,44,13.30
2016,06,15,11,45,13.30
2016,06,15,11,46,13.40
2016,06,15,11,47,13.40
2016,06,15,11,48,13.50
2016,06,15,11,49,13.60
2016,06,15,11,50,13.70
2016,06,15,11,51,13.70
2016,06,15,11,52,13.70
2016,06,15,11,53,13.60
2016,06,15,11,54,13.70
2016,06,15,11,55,13.70
2016,06,15,11,56,13.80
2016,06,15,11,57,13.90
2016,06,15,11,58,14.00
2016,06,15,11,59,14.00
2016,06,15,12,00,13.90
2016,06,15,12,01,13.80
2016,06,15,12,02,13.80
2016,06,15,12,03,13.60
2016,06,15,12,04,13.50
2016,06,15,12,05,13.40
2016,06,15,12,06,13.50
2016,06,15,12,07,13.70
2016,06,15,12,08,13.70
2016,06,15,12,09,13.70
2016,06,15,12,10,13.70
2016,06,15,12,11,13.70
2016,06,15,12,12,13.70
2016,06,15,12,13,13.80
2016,06,15,12,14,13.90
2016,06,15,12,15,14.10
2016,06,15,12,16,14.30
2016,06,15,12,17,14.20
2016,06,15,12,18,14.20
2016,06,15,12,19,14.10
2016,06,15,12,20,14.10
2016,06,15,12,21,14.00
2016,06,15,12,22,13.90
2016,06,15,12,23,14.00
2016,06,15,12,24,14.10
2016,06,15,12,25,14.20
2016,06,15,12,26,14.40
2016,06,15,12,27,14.50
2016,06,15,12,28,14.60
2016,06,15,12,29,14.60
2016,06,15,12,30,14.70
2016,06,15,12,31,14.70
2016,06,15,12,32,14.70
2016,06,15,12,33,14.60
2016,06,15,12,34,14.50
2016,06,15,12,35,14.40
2016,06,15,12,36,14.40
2016,06,15,12,37,14.30
2016,06,15,12,38,14.30
2016,06,15,12,39,14.30
2016,06,15,12,40,14.30
2016,06,15,12,41,14.30
2016,06,15,12,42,14.30
2016,06,15,12,43,14.40
2016,06,15,12,44,14.50
2016,06,15,12,45,14.50
2016,06,15,12,46,14.60
2016,06,15,12,47,14.60
2016,06,15,12,48,14.70
2016,06,15,12,49,14.70
2016,06,15,12,50,14.90
2016,06,15,12,51,15.00
2016,06,15,12,52,15.00
2016,06,15,12,53,15.10
2016,06,15,12,54,15.30
2016,06,15,12,55,15.40
2016,06,15,12,56,15.50
2016,06,15,12,57,15.60
2016,06,15,12,58,15.60
2016,06,15,12,59,15.40
2016,06,15,13,00,15.30
2016,06,15,13,01,15.30
2016,06,15,13,02,15.20
2016,06,15,13,03,15.20
2016,06,15,13,04,15.20
2016,06,15,13,05,15.10
2016,06,15,13,06,14.90
2016,06,15,13,07,14.70
2016,06,15,13,08,14.70
2016,06,15,13,09,14.60
2016,06,15,13,10,14.50
2016,06,15,13,11,14.60
2016,06,15,13,12,14.60
2016,06,15,13,13,14.60
2016,06,15,13,14,14.60
2016,06,15,13,15,14.50
2016,06,15,13,16,14.40
2016,06,15,13,17,14.30
2016,06,15,13,18,14.10
2016,06,15,13,19,14.00
2016,06,15,13,20,13.90
2016,06,15,13,21,13.90
2016,06,15,13,22,13.80
2016,06,15,13,23,13.80
2016,06,15,13,24,13.90
2016,06,15,13,25,14.00
2016,06,15,13,26,14.10
2016,06,15,13,27,14.20
2016,06,15,13,28,14.20
2016,06,15,13,29,14.20
2016,06,15,13,30,14.20
2016,06,15,13,31,14.40
2016,06,15,13,32,14.50
2016,06,15,13,33,14.60
2016,06,15,13,34,14.60
2016,06,15,13,35,14.50
2016,06,15,13,36,14.50
2016,06,15,13,37,14.40
2016,06,15,13,38,14.20
2016,06,15,13,39,14.20
2016,06,15,13,40,14.20
2016,06,15,13,41,14.20
2016,06,15,13,42,14.20
2016,06,15,13,43,14.20
2016,06,15,13,44,14.00
2016,06,15,13,45,14.00
2016,06,15,13,46,13.90
2016,06,15,13,47,13.90
2016,06,15,13,48,14.00
2016,06,15,13,49,14.20
2016,06,15,13,50,14.30
2016,06,15,13,51,14.50
2016,06,15,13,52,14.70
2016,06,15,13,53,14.90
2016,06,15,13,54,15.10
2016,06,15,13,55,15.10
2016,06,15,13,56,15.10
2016,06,15,13,57,15.20
2016,06,15,13,58,15.30
2016,06,15,13,59,15.30
2016,06,15,14,00,15.30
2016,06,15,14,01,15.30
2016,06,15,14,02,15.40
2016,06,15,14,03,15.50
2016,06,15,14,04,15.60
2016,06,15,14,05,15.60
2016,06,15,14,06,15.50
2016,06,15,14,07,15.40
2016,06,15,14,08,15.30
2016,06,15,14,09,15.40
2016,06,15,14,10,15.40
2016,06,15,14,11,15.50
2016,06,15,14,12,15.60
2016,06,15,14,13,15.60
2016,06,15,14,14,15.60
2016,06,15,14,15,15.60
2016,06,15,14,16,15.60
2016,06,15,14,17,15.60
2016,06,15,14,18,15.60
2016,06,15,14,19,15.60
2016,06,15,14,20,15.60
2016,06,15,14,21,15.70
2016,06,15,14,22,15.80
2016,06,15,14,23,15.80
2016,06,15,14,24,15.80
2016,06,15,14,25,15.80
2016,06,15,14,26,15.80
2016,06,15,14,27,15.70
2016,06,15,14,28,15.80
2016,06,15,14,29,15.80
2016,06,15,14,30,15.80
2016,06,15,14,31,15.80
2016,06,15,14,32,15.80
2016,06,15,14,33,15.70
2016,06,15,14,34,15.60
2016,06,15,14,35,15.70
2016,06,15,14,36,15.60
2016,06,15,14,37,15.60
2016,06,15,14,38,15.60
2016,06,15,14,39,15.60
2016,06,15,14,40,15.50
2016,06,15,14,41,15.30
2016,06,15,14,42,15.30
2016,06,15,14,43,15.30
2016,06,15,14,44,15.30
2016,06,15,14,45,15.40
2016,06,15,14,46,15.40
2016,06,15,14,47,15.40
2016,06,15,14,48,15.30
2016,06,15,14,49,15.40
2016,06,15,14,50,15.40
2016,06,15,14,51,15.40
2016,06,15,14,52,15.20
2016,06,15,14,53,15.10
2016,06,15,14,54,15.10
2016,06,15,14,55,15.20
2016,06,15,14,56,15.30
2016,06,15,14,57,15.50
2016,06,15,14,58,15.50
2016,06,15,14,59,15.60
2016,06,15,15,00,15.70
2016,06,15,15,01,15.50
2016,06,15,15,02,15.50
2016,06,15,15,03,15.50
2016,06,15,15,04,15.60
2016,06,15,15,05,15.60
2016,06,15,15,06,15.60
2016,06,15,15,07,15.60
2016,06,15,15,08,15.70
2016,06,15,15,09,15.80
2016,06,15,15,10,15.80
2016,06,15,15,11,15.70
2016,06,15,15,12,15.60
2016,06,15,15,13,15.40
2016,06,15,15,14,15.30
2016,06,15,15,15,15.20
2016,06,15,15,16,15.10
2016,06,15,15,17,14.90
2016,06,15,15,18,14.70
2016,06,15,15,19,14.70
2016,06,15,15,20,14.70
2016,06,15,15,21,14.80
2016,06,15,15,22,15.00
2016,06,15,15,23,15.00
2016,06,15,15,24,15.10
2016,06,15,15,25,15.20
2016,06,15,15,26,15.10
2016,06,15,15,27,15.10
2016,06,15,15,28,15.20
2016,06,15,15,29,15.30
2016,06,15,15,30,15.30
2016,06,15,15,31,15.40
2016,06,15,15,32,15.40
2016,06,15,15,33,15.50
2016,06,15,15,34,15.50
2016,06,15,15,35,15.50
2016,06,15,15,36,15.50
2016,06,15,15,37,15.50
2016,06,15,15,38,15.50
2016,06,15,15,39,15.50
2016,06,15,15,40,15.30
2016,06,15,15,41,15.30
2016,06,15,15,42,15.30
2016,06,15,15,43,15.40
2016,06,15,15,44,15.50
2016,06,15,15,45,15.60
2016,06,15,15,46,15.70
2016,06,15,15,47,15.80
2016,06,15,15,48,15.80
2016,06,15,15,49,15.80
2016,06,15,15,50,15.80
2016,06,15,15,51,15.80
2016,06,15,15,52,15.80
2016,06,15,15,53,15.80
2016,06,15,15,54,15.70
2016,06,15,15,55,15.50
2016,06,15,15,56,15.40
2016,06,15,15,57,15.30
2016,06,15,15,58,15.20
2016,06,15,15,59,15.20
2016,06,15,16,00,15.30
2016,06,15,16,01,15.40
2016,06,15,16,02,15.50
2016,06,15,16,03,15.60
2016,06,15,16,04,15.70
2016,06,15,16,05,15.80
2016,06,15,16,06,15.80
2016,06,15,16,07,15.80
2016,06,15,16,08,15.70
2016,06,15,16,09,15.70
2016,06,15,16,10,15.50
2016,06,15,16,11,15.50
2016,06,15,16,12,15.50
2016,06,15,16,13,15.50
2016,06,15,16,14,15.60
2016,06,15,16,15,15.60
2016,06,15,16,16,15.60
2016,06,15,16,17,15.60
2016,06,15,16,18,15.60
2016,06,15,16,19,15.50
2016,06,15,16,20,15.50
2016,06,15,16,21,15.40
2016,06,15,16,22,15.40
2016,06,15,16,23,15.40
2016,06,15,16,24,15.50
2016,06,15,16,25,15.50
2016,06,15,16,26,15.50
2016,06,15,16,27,15.50
2016,06,15,16,28,15.50
2016,06,15,16,29,15.50
2016,06,15,16,30,15.40
2016,06,15,16,31,15.40
2016,06,15,16,32,15.30
2016,06,15,16,33,15.30
2016,06,15,16,34,15.30
2016,06,15,16,35,15.20
2016,06,15,16,36,15.20
2016,06,15,16,37,15.10
2016,06,15,16,38,15.10
2016,06,15,16,39,15.20
2016,06,15,16,40,15.20
2016,06,15,16,41,15.30
2016,06,15,16,42,15.30
2016,06,15,16,43,15.30
2016,06,15,16,44,15.30
2016,06,15,16,45,15.30
2016,06,15,16,46,15.30
2016,06,15,16,47,15.30
2016,06,15,16,48,15.40
2016,06,15,16,49,15.50
2016,06,15,16,50,15.50
2016,06,15,16,51,15.60
2016,06,15,16,52,15.60
2016,06,15,16,53,15.70
2016,06,15,16,54,15.80
2016,06,15,16,55,15.80
2016,06,15,16,56,15.80
2016,06,15,16,57,15.80
2016,06,15,16,58,15.80
2016,06,15,16,59,15.80
2016,06,15,17,00,15.80
2016,06,15,17,01,15.80
2016,06,15,17,02,15.70
2016,06,15,17,03,15.70
2016,06,15,17,04,15.80
2016,06,15,17,05,15.70
2016,06,15,17,06,15.70
2016,06,15,17,07,15.70
2016,06,15,17,08,15.60
2016,06,15,17,09,15.60
2016,06,15,17,10,15.60
2016,06,15,17,11,15.50
2016,06,15,17,12,15.50
2016,06,15,17,13,15.60
2016,06,15,17,14,15.60
2016,06,15,17,15,15.60
2016,06,15,17,16,15.60
2016,06,15,17,17,15.70
2016,06,15,17,18,15.80
2016,06,15,17,19,15.80
2016,06,15,17,20,15.80
2016,06,15,17,21,15.80
2016,06,15,17,22,15.80
2016,06,15,17,23,15.80
2016,06,15,17,24,15.80
2016,06,15,17,25,15.70
2016,06,15,17,26,15.70
2016,06,15,17,27,15.60
2016,06,15,17,28,15.60
2016,06,15,17,29,15.60
2016,06,15,17,30,15.70
2016,06,15,17,31,15.70
2016,06,15,17,32,15.70
2016,06,15,17,33,15.60
2016,06,15,17,34,15.50
2016,06,15,17,35,15.40
2016,06,15,17,36,15.30
2016,06,15,17,37,15.30
2016,06,15,17,38,15.30
2016,06,15,17,39,15.20
2016,06,15,17,40,15.20
2016,06,15,17,41,15.20
2016,06,15,17,42,15.20
2016,06,15,17,43,15.20
2016,06,15,17,44,15.30
2016,06,15,17,45,15.30
2016,06,15,17,46,15.30
2016,06,15,17,47,15.40
2016,06,15,17,48,15.50
2016,06,15,17,49,15.60
2016,06,15,17,50,15.70
2016,06,15,17,51,15.70
2016,06,15,17,52,15.80
2016,06,15,17,53,15.80
2016,06,15,17,54,15.80
2016,06,15,17,55,15.80
2016,06,15,17,56,15.90
2016,06,15,17,57,15.90
2016,06,15,17,58,15.90
2016,06,15,17,59,15.90
2016,06,15,18,00,15.90
2016,06,15,18,01,16.00
2016,06,15,18,02,16.00
2016,06,15,18,03,15.90
2016,06,15,18,04,15.80
2016,06,15,18,05,15.80
2016,06,15,18,06,15.80
2016,06,15,18,07,15.80
2016,06,15,18,08,15.80
2016,06,15,18,09,15.80
2016,06,15,18,10,15.80
2016,06,15,18,11,15.80
2016,06,15,18,12,15.80
2016,06,15,18,13,15.80
2016,06,15,18,14,15.80
2016,06,15,18,15,15.80
2016,06,15,18,16,15.70
2016,06,15,18,17,15.70
2016,06,15,18,18,15.60
2016,06,15,18,19,15.60
2016,06,15,18,20,15.60
2016,06,15,18,21,15.50
2016,06,15,18,22,15.50
2016,06,15,18,23,15.50
2016,06,15,18,24,15.50
2016,06,15,18,25,15.50
2016,06,15,18,26,15.50
2016,06,15,18,27,15.50
2016,06,15,18,28,15.50
2016,06,15,18,29,15.50
2016,06,15,18,30,15.60
2016,06,15,18,31,15.60
2016,06,15,18,32,15.60
2016,06,15,18,33,15.70
2016,06,15,18,34,15.70
2016,06,15,18,35,15.80
2016,06,15,18,36,15.80
2016,06,15,18,37,15.80
2016,06,15,18,38,15.80
2016,06,15,18,39,15.80
2016,06,15,18,40,15.90
2016,06,15,18,41,15.90
2016,06,15,18,42,16.00
2016,06,15,18,43,16.10
2016,06,15,18,44,15.90
2016,06,15,18,45,15.80
2016,06,15,18,46,15.80
2016,06,15,18,47,15.80
2016,06,15,18,48,15.70
2016,06,15,18,49,15.60
2016,06,15,18,50,15.60
2016,06,15,18,51,15.50
2016,06,15,18,52,15.50
2016,06,15,18,53,15.50
2016,06,15,18,54,15.50
2016,06,15,18,55,15.50
2016,06,15,18,56,15.40
2016,06,15,18,57,15.40
2016,06,15,18,58,15.50
2016,06,15,18,59,15.50
2016,06,15,19,00,15.60
2016,06,15,19,01,15.60
2016,06,15,19,02,15.70
2016,06,15,19,03,15.70
2016,06,15,19,04,15.60
2016,06,15,19,05,15.50
2016,06,15,19,06,15.50
2016,06,15,19,07,15.50
2016,06,15,19,08,15.50
2016,06,15,19,09,15.50
2016,06,15,19,10,15.40
2016,06,15,19,11,15.40
2016,06,15,19,12,15.40
2016,06,15,19,13,15.50
2016,06,15,19,14,15.50
2016,06,15,19,15,15.50
2016,06,15,19,16,15.60
2016,06,15,19,17,15.60
2016,06,15,19,18,15.70
2016,06,15,19,19,15.70
2016,06,15,19,20,15.70
2016,06,15,19,21,15.70
2016,06,15,19,22,15.60
2016,06,15,19,23,15.50
2016,06,15,19,24,15.50
2016,06,15,19,25,15.30
2016,06,15,19,26,15.30
2016,06,15,19,27,15.20
2016,06,15,19,28,15.20
2016,06,15,19,29,15.10
2016,06,15,19,30,15.20
2016,06,15,19,31,15.20
2016,06,15,19,32,15.20
2016,06,15,19,33,15.20
2016,06,15,19,34,15.20
2016,06,15,19,35,15.20
2016,06,15,19,36,15.20
2016,06,15,19,37,15.20
2016,06,15,19,38,15.30
2016,06,15,19,39,15.30
2016,06,15,19,40,15.30
2016,06,15,19,41,15.20
2016,06,15,19,42,15.20
2016,06,15,19,43,15.20
2016,06,15,19,44,15.10
2016,06,15,19,45,15.10
2016,06,15,19,46,15.00
2016,06,15,19,47,15.00
2016,06,15,19,48,15.00
2016,06,15,19,49,15.00
2016,06,15,19,50,15.00
2016,06,15,19,51,14.90
2016,06,15,19,52,14.90
2016,06,15,19,53,14.80
2016,06,15,19,54,14.80
2016,06,15,19,55,14.80
2016,06,15,19,56,14.90
2016,06,15,19,57,14.90
2016,06,15,19,58,14.90
2016,06,15,19,59,14.90
2016,06,15,20,00,14.90
2016,06,15,20,01,14.90
2016,06,15,20,02,14.80
2016,06,15,20,03,14.80
2016,06,15,20,04,14.80
2016,06,15,20,05,14.80
2016,06,15,20,06,14.80
2016,06,15,20,07,14.80
2016,06,15,20,08,14.80
2016,06,15,20,09,14.80
2016,06,15,20,10,14.80
2016,06,15,20,11,14.80
2016,06,15,20,12,14.80
2016,06,15,20,13,14.80
2016,06,15,20,14,14.90
2016,06,15,20,15,14.90
2016,06,15,20,16,14.80
2016,06,15,20,17,14.80
2016,06,15,20,18,14.80
2016,06,15,20,19,14.80
2016,06,15,20,20,14.80
2016,06,15,20,21,14.80
2016,06,15,20,22,14.80
2016,06,15,20,23,14.80
2016,06,15,20,24,14.80
2016,06,15,20,25,14.70
2016,06,15,20,26,14.70
2016,06,15,20,27,14.60
2016,06,15,20,28,14.60
2016,06,15,20,29,14.60
2016,06,15,20,30,14.50
2016,06,15,20,31,14.50
2016,06,15,20,32,14.50
2016,06,15,20,33,14.50
2016,06,15,20,34,14.40
2016,06,15,20,35,14.40
2016,06,15,20,36,14.40
2016,06,15,20,37,14.40
2016,06,15,20,38,14.40
2016,06,15,20,39,14.40
2016,06,15,20,40,14.40
2016,06,15,20,41,14.40
2016,06,15,20,42,14.40
2016,06,15,20,43,14.40
2016,06,15,20,44,14.40
2016,06,15,20,45,14.40
2016,06,15,20,46,14.40
2016,06,15,20,47,14.40
2016,06,15,20,48,14.40
2016,06,15,20,49,14.30
2016,06,15,20,50,14.30
2016,06,15,20,51,14.30
2016,06,15,20,52,14.30
2016,06,15,20,53,14.30
2016,06,15,20,54,14.30
2016,06,15,20,55,14.30
2016,06,15,20,56,14.30
2016,06,15,20,57,14.30
2016,06,15,20,58,14.30
2016,06,15,20,59,14.30
2016,06,15,21,00,14.30
2016,06,15,21,01,14.30
2016,06,15,21,02,14.30
